When you browse on this site, cookies collect data to enhance your experience and personalize the content and advertising you see.
Visit our Privacy Policy to learn more. By continuing to use the site, you agree to this use of cookies and data.
  • In Österreich
  • Länderverzeichnis
  • Für 7 Tage
  • Wassertemperatur
  • Wetterkarte
  • News
  • Widgets
  • user-avatar
    Anmelden

    Stündliche Wetter Yamagata

    Heute, 5 Juni, Freitag

    Zeit Temperatur Niederschläge Wind Luftdruck Luftfeuchtigkeit
    00:00 +18°C° 0 mm 1 m/S 713 mmHg 90%
    01:00 +16°C° 0 mm 1 m/S 713 mmHg 91%
    02:00 +16°C° 0 mm 1 m/S 712 mmHg 92%
    03:00 +16°C° 0 mm 1 m/S 712 mmHg 93%
    04:00 +18°C° 0 mm 1 m/S 713 mmHg 91%
    05:00 +19°C° 0 mm 1 m/S 713 mmHg 89%
    06:00 +20°C° 0 mm 1 m/S 714 mmHg 87%
    07:00 +22°C° 0 mm 1 m/S 714 mmHg 76%
    08:00 +24°C° 0 mm 1 m/S 714 mmHg 65%
    09:00 +27°C° 0 mm 1 m/S 714 mmHg 54%
    10:00 +27°C° 0.1 mm 2 m/S 714 mmHg 50%
    11:00 +28°C° 0.1 mm 2 m/S 714 mmHg 47%
    12:00 +29°C° 0.1 mm 3 m/S 715 mmHg 43%
    13:00 +28°C° 0.1 mm 3 m/S 714 mmHg 46%
    14:00 +28°C° 0.1 mm 3 m/S 714 mmHg 49%
    15:00 +27°C° 0.1 mm 3 m/S 713 mmHg 52%
    16:00 +26°C° 0.2 mm 2 m/S 714 mmHg 61%
    17:00 +24°C° 0.2 mm 1 m/S 714 mmHg 70%
    18:00 +23°C° 0.2 mm 1 m/S 714 mmHg 79%
    19:00 +21°C° 0.4 mm 1 m/S 714 mmHg 84%
    20:00 +20°C° 0.4 mm 1 m/S 714 mmHg 89%
    21:00 +18°C° 0.4 mm 1 m/S 714 mmHg 94%
    22:00 +18°C° 0 mm 1 m/S 714 mmHg 95%
    23:00 +16°C° 0 mm 1 m/S 714 mmHg 95%

    Morgen, 6 Juni, Samstag

    Zeit Temperatur Niederschläge Wind Luftdruck Luftfeuchtigkeit
    00:00 +15°C° 0 mm 0 m/S 714 mmHg 96%
    01:00 +16°C° 0 mm 1 m/S 714 mmHg 96%
    02:00 +15°C° 0 mm 1 m/S 714 mmHg 96%
    03:00 +15°C° 0 mm 1 m/S 714 mmHg 97%
    04:00 +16°C° 0.1 mm 1 m/S 714 mmHg 96%
    05:00 +16°C° 0.1 mm 1 m/S 715 mmHg 96%
    06:00 +18°C° 0.1 mm 1 m/S 715 mmHg 95%
    07:00 +19°C° 0.1 mm 1 m/S 715 mmHg 87%
    08:00 +21°C° 0.1 mm 1 m/S 715 mmHg 79%
    09:00 +22°C° 0.1 mm 1 m/S 716 mmHg 71%
    10:00 +23°C° 0 mm 2 m/S 716 mmHg 64%
    11:00 +25°C° 0 mm 2 m/S 716 mmHg 56%
    12:00 +26°C° 0 mm 2 m/S 716 mmHg 48%
    13:00 +26°C° 0 mm 2 m/S 716 mmHg 47%
    14:00 +25°C° 0 mm 2 m/S 715 mmHg 46%
    15:00 +25°C° 0 mm 2 m/S 715 mmHg 45%
    16:00 +23°C° 0 mm 2 m/S 715 mmHg 54%
    17:00 +20°C° 0 mm 2 m/S 715 mmHg 62%
    18:00 +20°C° 0 mm 1 m/S 715 mmHg 70%
    19:00 +18°C° 0 mm 1 m/S 715 mmHg 74%
    20:00 +15°C° 0 mm 1 m/S 715 mmHg 79%
    21:00 +12°C° 0 mm 0 m/S 715 mmHg 83%
    22:00 +11°C° 0 mm 0 m/S 715 mmHg 83%
    23:00 +11°C° 0 mm 0 m/S 715 mmHg 83%

    übermorgen, 7 Juni, Sonntag

    Zeit Temperatur Niederschläge Wind Luftdruck Luftfeuchtigkeit
    00:00 +10°C° 0 mm 0 m/S 715 mmHg 82%
    01:00 +10°C° 0 mm 0 m/S 715 mmHg 84%
    02:00 +10°C° 0 mm 0 m/S 715 mmHg 86%
    03:00 +9°C° 0 mm 0 m/S 714 mmHg 87%
    04:00 +10°C° 0 mm 0 m/S 715 mmHg 84%
    05:00 +11°C° 0 mm 0 m/S 715 mmHg 81%
    06:00 +12°C° 0 mm 0 m/S 716 mmHg 78%
    07:00 +15°C° 0 mm 0 m/S 716 mmHg 70%
    08:00 +19°C° 0 mm 1 m/S 716 mmHg 62%
    09:00 +21°C° 0 mm 1 m/S 717 mmHg 54%
    10:00 +23°C° 0 mm 1 m/S 717 mmHg 51%
    11:00 +24°C° 0 mm 1 m/S 717 mmHg 47%
    12:00 +25°C° 0 mm 1 m/S 718 mmHg 44%
    13:00 +24°C° 0 mm 2 m/S 717 mmHg 49%
    14:00 +24°C° 0 mm 2 m/S 717 mmHg 54%
    15:00 +23°C° 0 mm 2 m/S 717 mmHg 59%
    16:00 +21°C° 0 mm 2 m/S 717 mmHg 65%
    17:00 +21°C° 0 mm 1 m/S 717 mmHg 70%
    18:00 +19°C° 0 mm 1 m/S 718 mmHg 75%
    19:00 +16°C° 0 mm 1 m/S 718 mmHg 82%
    20:00 +14°C° 0 mm 1 m/S 718 mmHg 89%
    21:00 +12°C° 0 mm 1 m/S 718 mmHg 95%
    22:00 +12°C° 0 mm 1 m/S 718 mmHg 96%
    23:00 +11°C° 0 mm 0 m/S 718 mmHg 96%

    8 Juni, Montag

    Zeit Temperatur Niederschläge Wind Luftdruck Luftfeuchtigkeit
    00:00 +10°C° 0 mm 0 m/S 718 mmHg 96%
    01:00 +10°C° 0 mm 0 m/S 718 mmHg 96%
    02:00 +10°C° 0 mm 0 m/S 718 mmHg 96%
    03:00 +10°C° 0 mm 0 m/S 718 mmHg 96%
    04:00 +11°C° 0 mm 0 m/S 719 mmHg 93%
    05:00 +12°C° 0 mm 0 m/S 720 mmHg 90%
    06:00 +13°C° 0 mm 0 m/S 720 mmHg 87%
    07:00 +16°C° 0 mm 0 m/S 721 mmHg 76%
    08:00 +19°C° 0 mm 0 m/S 721 mmHg 64%
    09:00 +22°C° 0 mm 0 m/S 722 mmHg 52%
    10:00 +25°C° 0 mm 1 m/S 722 mmHg 47%
    11:00 +26°C° 0 mm 1 m/S 722 mmHg 42%
    12:00 +27°C° 0 mm 1 m/S 722 mmHg 37%
    13:00 +27°C° 0 mm 1 m/S 721 mmHg 38%
    14:00 +27°C° 0 mm 1 m/S 721 mmHg 39%
    15:00 +27°C° 0 mm 1 m/S 721 mmHg 40%
    16:00 +25°C° 0 mm 1 m/S 721 mmHg 50%
    17:00 +23°C° 0 mm 1 m/S 721 mmHg 60%
    18:00 +22°C° 0 mm 1 m/S 721 mmHg 70%
    19:00 +20°C° 0 mm 1 m/S 721 mmHg 75%
    20:00 +16°C° 0 mm 0 m/S 721 mmHg 80%
    21:00 +14°C° 0 mm 0 m/S 722 mmHg 85%
    22:00 +14°C° 0 mm 0 m/S 721 mmHg 85%
    23:00 +13°C° 0 mm 0 m/S 721 mmHg 85%

    9 Juni, Dienstag

    Zeit Temperatur Niederschläge Wind Luftdruck Luftfeuchtigkeit
    00:00 +14°C° 0 mm 1 m/S 721 mmHg 85%
    01:00 +14°C° 0 mm 1 m/S 721 mmHg 82%
    02:00 +14°C° 0 mm 1 m/S 721 mmHg 80%
    03:00 +14°C° 0 mm 1 m/S 721 mmHg 77%
    04:00 +15°C° 0 mm 1 m/S 721 mmHg 73%
    05:00 +16°C° 0 mm 1 m/S 722 mmHg 69%
    06:00 +18°C° 0 mm 1 m/S 722 mmHg 66%
    07:00 +21°C° 0 mm 1 m/S 722 mmHg 56%
    08:00 +24°C° 0 mm 1 m/S 723 mmHg 46%
    09:00 +27°C° 0 mm 1 m/S 723 mmHg 37%
    10:00 +28°C° 0 mm 1 m/S 723 mmHg 35%
    11:00 +29°C° 0 mm 1 m/S 723 mmHg 33%
    12:00 +30°C° 0 mm 1 m/S 723 mmHg 31%
    13:00 +30°C° 0 mm 2 m/S 723 mmHg 32%
    14:00 +31°C° 0 mm 2 m/S 723 mmHg 32%
    15:00 +31°C° 0 mm 2 m/S 722 mmHg 33%
    16:00 +28°C° 0 mm 2 m/S 722 mmHg 43%
    17:00 +26°C° 0 mm 1 m/S 722 mmHg 53%
    18:00 +24°C° 0 mm 1 m/S 722 mmHg 62%
    19:00 +23°C° 0 mm 1 m/S 722 mmHg 63%
    20:00 +21°C° 0 mm 1 m/S 722 mmHg 64%
    21:00 +19°C° 0 mm 1 m/S 722 mmHg 65%
    22:00 +18°C° 0 mm 1 m/S 722 mmHg 66%
    23:00 +18°C° 0 mm 1 m/S 722 mmHg 67%

    10 Juni, Mittwoch

    Zeit Temperatur Niederschläge Wind Luftdruck Luftfeuchtigkeit
    00:00 +16°C° 0 mm 1 m/S 722 mmHg 68%
    01:00 +16°C° 0 mm 1 m/S 721 mmHg 68%
    02:00 +16°C° 0 mm 1 m/S 721 mmHg 68%
    03:00 +16°C° 0 mm 1 m/S 721 mmHg 67%
    04:00 +18°C° 0 mm 1 m/S 721 mmHg 66%
    05:00 +19°C° 0 mm 1 m/S 722 mmHg 65%
    06:00 +20°C° 0 mm 1 m/S 722 mmHg 64%
    07:00 +24°C° 0 mm 1 m/S 722 mmHg 57%
    08:00 +27°C° 0 mm 1 m/S 722 mmHg 50%
    09:00 +28°C° 0 mm 0 m/S 723 mmHg 42%
    10:00 +31°C° 0 mm 1 m/S 722 mmHg 40%
    11:00 +32°C° 0 mm 1 m/S 722 mmHg 38%
    12:00 +33°C° 0 mm 1 m/S 722 mmHg 36%
    13:00 +33°C° 0 mm 1 m/S 722 mmHg 37%
    14:00 +33°C° 0 mm 1 m/S 721 mmHg 37%
    15:00 +33°C° 0 mm 1 m/S 721 mmHg 38%
    16:00 +31°C° 0 mm 1 m/S 720 mmHg 48%
    17:00 +28°C° 0 mm 1 m/S 720 mmHg 59%
    18:00 +26°C° 0 mm 1 m/S 720 mmHg 69%
    19:00 +24°C° 0 mm 1 m/S 720 mmHg 74%
    20:00 +23°C° 0 mm 1 m/S 720 mmHg 78%
    21:00 +21°C° 0 mm 1 m/S 720 mmHg 83%
    22:00 +20°C° 0 mm 1 m/S 719 mmHg 85%
    23:00 +18°C° 0 mm 0 m/S 719 mmHg 86%
    Mehr zeigen